User: anonymous   Login
Location: Bishop�s Knoyle
(51.0728°N, 2.1714°W)
Time: 11:10:17
(UTC+00:00)
Language:

UKube-1 - Orbit

View from above orbital plane
View from above orbital plane
View from above satellite
View from above satellite

Ground track
Ground track

The orbit data is extracted from the following two-line orbital elements,

1 40074U 14037F   21335.05240582  .00000594  00000-0  77144-4 0  9995
2 40074  98.4070 200.1092 0003470 199.5320 160.5764 14.84745147400628
Epoch (UTC): 01 December 2021 01:15:27
Eccentricity: 0.0003470
inclination: 98.4070°
perigee height: 612 km
apogee height: 617 km
right ascension of ascending node: 200.1092°
argument of perigee: 199.5320°
revolutions per day: 14.84745147
mean anomaly at epoch: 160.5764°
orbit number at epoch: 40062

The dashed part of the orbit path shows where the satellite is in the earth's shadow,  

DLR